User: anonymous   Login
Location: Peebles
(55.6412°N, 3.1714°W)
Time: 07:53:35
(UTC+00:00)
Language:

EO 1 Delta rocket - Orbit

View from above orbital plane
View from above orbital plane
View from above satellite
View from above satellite

Ground track
Ground track

The orbit data is extracted from the following two-line orbital elements,

1 26622U 00075D   21336.81893295  .00000438  00000-0  40144-3 0  9991
2 26622  95.4168 347.3851 0717666 195.9419 339.9632 13.04488153  1143
Epoch (UTC): 02 December 2021 19:39:15
Eccentricity: 0.0717666
inclination: 95.4168°
perigee height: 697 km
apogee height: 1791 km
right ascension of ascending node: 347.3851°
argument of perigee: 195.9419°
revolutions per day: 13.04488153
mean anomaly at epoch: 339.9632°
orbit number at epoch: 114

The dashed part of the orbit path shows where the satellite is in the earth's shadow,  

DLR